TimeBST,TemperatureF,Dew PointF,Humidity,Sea Level PressureIn,VisibilityMPH,Wind Direction,Wind SpeedMPH,Gust SpeedMPH,PrecipitationIn,Events,Conditions,WindDirDegrees,DateUTC
12:20 AM,59.0,55.4,88,30.27,-9999.0,WNW,4.6,-,N/A,,Clear,290,2012-09-03 23:20:00
12:50 AM,60,56,81,30.26,12,West,2.3,,,,,270,2012-09-03 23:50:00
12:50 AM,60.8,55.4,82,30.24,-9999.0,West,2.3,-,N/A,,Clear,280,2012-09-03 23:50:00
1:20 AM,60.8,57.2,88,30.24,6.2,West,3.5,-,N/A,,Unknown,270,2012-09-04 00:20:00
1:50 AM,60.8,57.2,88,30.24,6.2,WSW,2.3,-,N/A,,Unknown,250,2012-09-04 00:50:00
2:20 AM,59.0,55.4,88,30.24,6.2,SW,2.3,-,N/A,,Unknown,220,2012-09-04 01:20:00
2:50 AM,59.0,55.4,88,30.24,6.2,Variable,3.5,-,N/A,,Partly Cloudy,0,2012-09-04 01:50:00
3:20 AM,59.0,55.4,88,30.24,-9999.0,SSW,3.5,-,N/A,,Clear,210,2012-09-04 02:20:00
3:50 AM,58,56,89,30.25,6,West,4.6,,,,Scattered Clouds,260,2012-09-04 02:50:00
3:50 AM,59.0,55.4,88,30.24,-9999.0,West,3.5,-,N/A,,Clear,260,2012-09-04 02:50:00
4:20 AM,57.2,55.4,94,30.24,-9999.0,SSW,4.6,-,N/A,,Clear,210,2012-09-04 03:20:00
4:50 AM,57.2,55.4,94,30.24,-9999.0,Variable,3.5,-,N/A,,Clear,0,2012-09-04 03:50:00
5:20 AM,57.2,53.6,88,30.21,-9999.0,WSW,5.8,-,N/A,,Clear,250,2012-09-04 04:20:00
5:50 AM,57.2,53.6,88,30.21,5.0,West,6.9,-,N/A,,Unknown,260,2012-09-04 04:50:00
6:20 AM,57.2,53.6,88,30.21,5.0,West,6.9,-,N/A,,Unknown,280,2012-09-04 05:20:00
6:50 AM,57,54,88,30.23,4,West,9.2,,,,Light Haze,260,2012-09-04 05:50:00
6:50 AM,57.2,53.6,88,30.21,3.7,West,9.2,-,N/A,,Scattered Clouds,270,2012-09-04 05:50:00
7:20 AM,57.2,53.6,88,30.24,-9999.0,WNW,9.2,-,N/A,,Mostly Cloudy,290,2012-09-04 06:20:00
7:50 AM,57.2,55.4,94,30.24,-9999.0,WNW,9.2,-,N/A,,Overcast,300,2012-09-04 06:50:00
8:20 AM,59.0,55.4,88,30.24,3.1,WNW,8.1,-,N/A,,Mostly Cloudy,300,2012-09-04 07:20:00
8:50 AM,59.0,55.4,88,30.24,3.7,West,9.2,-,N/A,,Mostly Cloudy,280,2012-09-04 07:50:00
9:20 AM,60.8,55.4,82,30.24,4.3,West,10.4,-,N/A,,Mostly Cloudy,260,2012-09-04 08:20:00
9:50 AM,64,56,68,30.25,6,West,6.9,,,,Light Haze,280,2012-09-04 08:50:00
9:50 AM,62.6,55.4,77,30.24,5.0,WNW,6.9,-,N/A,,Partly Cloudy,290,2012-09-04 08:50:00
10:20 AM,66.2,55.4,68,30.24,-9999.0,West,8.1,-,N/A,,Clear,280,2012-09-04 09:20:00
10:50 AM,66.2,55.4,68,30.24,-9999.0,West,9.2,-,N/A,,Clear,280,2012-09-04 09:50:00
11:20 AM,69.8,55.4,60,30.24,-9999.0,West,8.1,-,N/A,,Clear,280,2012-09-04 10:20:00
11:50 AM,71.6,57.2,60,30.21,-9999.0,NW,5.8,-,N/A,,Clear,310,2012-09-04 10:50:00
12:20 PM,73.4,57.2,57,30.21,-9999.0,NW,5.8,-,N/A,,Clear,310,2012-09-04 11:20:00
12:50 PM,73,58,51,30.22,12,WNW,5.8,,,,Scattered Clouds,300,2012-09-04 11:50:00
12:50 PM,73.4,57.2,57,30.21,-9999.0,WNW,4.6,-,N/A,,Clear,290,2012-09-04 11:50:00
1:20 PM,75.2,59.0,57,30.21,-9999.0,WNW,5.8,-,N/A,,Clear,300,2012-09-04 12:20:00
1:50 PM,77.0,59.0,54,30.21,6.2,NNW,6.9,-,N/A,,Partly Cloudy,330,2012-09-04 12:50:00
2:20 PM,77.0,57.2,50,30.21,6.2,NNW,6.9,-,N/A,,Partly Cloudy,340,2012-09-04 13:20:00
2:50 PM,77.0,59.0,54,30.21,6.2,NW,8.1,-,N/A,,Mostly Cloudy,310,2012-09-04 13:50:00
3:20 PM,77.0,59.0,54,30.21,6.2,NNW,5.8,-,N/A,,Scattered Clouds,330,2012-09-04 14:20:00
3:50 PM,75,61,52,30.20,14,NNW,5.8,,,,Overcast,330,2012-09-04 14:50:00
3:50 PM,75.2,59.0,57,30.21,6.2,NNW,5.8,-,N/A,,Scattered Clouds,330,2012-09-04 14:50:00
4:20 PM,75.2,60.8,61,30.18,6.2,North,6.9,-,N/A,,Scattered Clouds,350,2012-09-04 15:20:00
4:50 PM,75.2,60.8,61,30.18,6.2,NW,6.9,-,N/A,,Scattered Clouds,320,2012-09-04 15:50:00
5:20 PM,75.2,60.8,61,30.18,6.2,North,8.1,-,N/A,,Scattered Clouds,350,2012-09-04 16:20:00
5:50 PM,71.6,59.0,64,30.21,6.2,North,6.9,-,N/A,,Mostly Cloudy,360,2012-09-04 16:50:00
6:20 PM,71.6,60.8,69,30.21,6.2,North,8.1,-,N/A,,Mostly Cloudy,350,2012-09-04 17:20:00
6:50 PM,71,60,60,30.21,12,NNW,6.9,,,,Overcast,340,2012-09-04 17:50:00
6:50 PM,71.6,59.0,64,30.21,6.2,NNW,6.9,-,N/A,,Mostly Cloudy,340,2012-09-04 17:50:00
7:20 PM,69.8,59.0,68,30.21,6.2,North,6.9,-,N/A,,Mostly Cloudy,350,2012-09-04 18:20:00
7:50 PM,69.8,59.0,68,30.21,6.2,North,5.8,-,N/A,,Mostly Cloudy,350,2012-09-04 18:50:00
8:20 PM,69.8,59.0,68,30.24,6.2,North,5.8,-,N/A,,Mostly Cloudy,350,2012-09-04 19:20:00
8:50 PM,69.8,59.0,68,30.24,6.2,NNW,5.8,-,N/A,,Mostly Cloudy,340,2012-09-04 19:50:00
9:20 PM,68.0,59.0,73,30.24,6.2,NNW,4.6,-,N/A,,Mostly Cloudy,340,2012-09-04 20:20:00
9:50 PM,67,58,65,30.25,11,NNW,5.8,,,,Mostly Cloudy,340,2012-09-04 20:50:00
9:50 PM,68.0,57.2,68,30.24,6.2,North,6.9,-,N/A,,Mostly Cloudy,350,2012-09-04 20:50:00
10:20 PM,68.0,55.4,64,30.24,6.2,North,8.1,-,N/A,,Mostly Cloudy,360,2012-09-04 21:20:00
10:50 PM,64.4,51.8,64,30.24,6.2,North,8.1,-,N/A,,Partly Cloudy,360,2012-09-04 21:50:00
11:20 PM,60.8,46.4,59,30.24,-9999.0,North,5.8,-,N/A,,Clear,360,2012-09-04 22:20:00
11:50 PM,60.8,46.4,59,30.27,-9999.0,North,6.9,-,N/A,,Clear,360,2012-09-04 22:50:00